This is the latest recevied weather packets stored in our database for station/object KD8OZS. If no packets are shown the sender has not sent any weather packets the latest 10 day(s).
| Time | Temp. | Humidity | Pressure | Rain* | Wind** | Luminosity | Snow |
|---|---|---|---|---|---|---|---|
| 1778087174 | 13.89° C | 60% | 1004.5 hPa | 0 mm | - | 767 W/m² | - |
| 1778086871 | 13.89° C | 57% | 1004.2 hPa | 0 mm | - | 445 W/m² | - |
| 1778086570 | 13.33° C | 55% | 1004.1 hPa | 0 mm | - | 426 W/m² | - |
| 1778086265 | 13.33° C | 57% | 1004.3 hPa | 0 mm | - | 333 W/m² | - |
| 1778085963 | 13.33° C | 58% | 1004.6 hPa | 0 mm | - | 229 W/m² | - |
| 1778085660 | 13.33° C | 62% | 1004.2 hPa | 0 mm | - | 300 W/m² | - |
| 1778085355 | 13.33° C | 59% | 1004.5 hPa | 0 mm | - | 321 W/m² | - |
| 1778085051 | 13.89° C | 61% | 1004.5 hPa | 0 mm | - | 275 W/m² | - |
| 1778084748 | 13.33° C | 60% | 1004.5 hPa | 0 mm | - | 171 W/m² | - |
| 1778084440 | 13.33° C | 58% | 1004.5 hPa | 0 mm | - | 561 W/m² | - |
| 1778084137 | 12.78° C | 60% | 1004.1 hPa | 0 mm | - | 180 W/m² | - |
| 1778083834 | 12.78° C | 64% | 1004.2 hPa | 0 mm | - | 100 W/m² | - |
| 1778083532 | 12.22° C | 64% | 1004.2 hPa | 0 mm | - | 87 W/m² | - |
| 1778083228 | 12.78° C | 67% | 1004.5 hPa | 0 mm | - | 88 W/m² | - |
| 1778082926 | 12.22° C | 67% | 1004.1 hPa | 0 mm | - | 89 W/m² | - |
| 1778081818 | 12.22° C | 68% | 1004.1 hPa | 0 mm | - | 386 W/m² | - |
| 1778081515 | 11.67° C | 69% | 1003.9 hPa | 0 mm | - | 380 W/m² | - |
| 1778081212 | 11.67° C | 71% | 1003.9 hPa | 0 mm | - | 356 W/m² | - |
| 1778080910 | 11.11° C | 69% | 1003.9 hPa | 0 mm | - | 340 W/m² | - |
| 1778080609 | 11.11° C | 70% | 1004 hPa | 0 mm | - | 280 W/m² | - |
| 1778080305 | 11.11° C | 69% | 1004 hPa | 0 mm | - | 318 W/m² | - |
| 1778080001 | 10.56° C | 73% | 1004 hPa | 0 mm | - | 332 W/m² | - |
| 1778079699 | 10.56° C | 73% | 1003.7 hPa | 0 mm | - | 356 W/m² | - |
| 1778079395 | 10.56° C | 73% | 1003.5 hPa | 0 mm | - | 317 W/m² | - |
| 1778079092 | 10.56° C | 76% | 1003.4 hPa | 0 mm | - | 337 W/m² | - |
* Rain latest hour (hover to see other rain measurements)
** Current wind speed in m/s (hover to see current wind gust speed)